Location: ???? ???? ?????
(31.2680°N, 31.7283°E)
Time: 18:44:41
(UTC+00:00)

OAO 2 Rocket - Pass Details

Date: 13 July 2020
Orbit: 676 x 746 km, 35.0° (Epoch: 05 August)

Event Time Altitude Azimuth Distance (km) Brightness Sun altitude
Rises 19:18:35 0° 285° (WNW) 3,144 7.5 -24.6°
Reaches altitude 10° 19:21:05 10° 279° (W) 2,229 6.5 -24.9°
Enters shadow 19:25:38 44° 223° (SW) 1,006 4.0 -25.6°
